Year,Month,Day,Hour,Minute,Value (Times are PST for windspeed in km/hr)
2014,05,23,00,00,0.50
2014,05,23,00,01,0.90
2014,05,23,00,02,0.10
2014,05,23,00,03,2.30
2014,05,23,00,04,3.10
2014,05,23,00,05,1.30
2014,05,23,00,06,1.20
2014,05,23,00,07,0.00
2014,05,23,00,08,1.00
2014,05,23,00,09,1.60
2014,05,23,00,10,1.10
2014,05,23,00,11,0.90
2014,05,23,00,12,0.20
2014,05,23,00,13,0.40
2014,05,23,00,14,1.20
2014,05,23,00,15,0.20
2014,05,23,00,16,0.70
2014,05,23,00,17,0.10
2014,05,23,00,18,0.70
2014,05,23,00,19,1.10
2014,05,23,00,20,1.60
2014,05,23,00,21,1.60
2014,05,23,00,22,1.60
2014,05,23,00,23,1.30
2014,05,23,00,24,0.00
2014,05,23,00,25,0.20
2014,05,23,00,26,0.00
2014,05,23,00,27,0.00
2014,05,23,00,28,0.00
2014,05,23,00,29,0.00
2014,05,23,00,30,0.00
2014,05,23,00,31,0.00
2014,05,23,00,32,0.00
2014,05,23,00,33,1.30
2014,05,23,00,34,1.60
2014,05,23,00,35,1.40
2014,05,23,00,36,0.20
2014,05,23,00,37,0.10
2014,05,23,00,38,0.00
2014,05,23,00,39,0.00
2014,05,23,00,40,0.00
2014,05,23,00,41,0.00
2014,05,23,00,42,0.90
2014,05,23,00,43,1.30
2014,05,23,00,44,1.10
2014,05,23,00,45,2.30
2014,05,23,00,46,3.20
2014,05,23,00,47,3.20
2014,05,23,00,48,4.00
2014,05,23,00,49,4.70
2014,05,23,00,50,4.80
2014,05,23,00,51,5.60
2014,05,23,00,52,7.40
2014,05,23,00,53,7.30
2014,05,23,00,54,7.90
2014,05,23,00,55,8.70
2014,05,23,00,56,7.60
2014,05,23,00,57,6.40
2014,05,23,00,58,5.10
2014,05,23,00,59,4.70
2014,05,23,01,00,4.10
2014,05,23,01,01,2.70
2014,05,23,01,02,2.10
2014,05,23,01,03,3.00
2014,05,23,01,04,3.20
2014,05,23,01,05,2.80
2014,05,23,01,06,3.20
2014,05,23,01,07,2.80
2014,05,23,01,08,2.40
2014,05,23,01,09,2.00
2014,05,23,01,10,2.40
2014,05,23,01,11,1.90
2014,05,23,01,12,2.90
2014,05,23,01,13,1.50
2014,05,23,01,14,2.80
2014,05,23,01,15,3.10
2014,05,23,01,16,1.60
2014,05,23,01,17,1.50
2014,05,23,01,18,0.60
2014,05,23,01,19,1.80
2014,05,23,01,20,2.70
2014,05,23,01,21,1.50
2014,05,23,01,22,0.80
2014,05,23,01,23,1.40
2014,05,23,01,24,0.70
2014,05,23,01,25,1.10
2014,05,23,01,26,1.30
2014,05,23,01,27,1.20
2014,05,23,01,28,1.10
2014,05,23,01,29,0.70
2014,05,23,01,30,1.80
2014,05,23,01,31,2.00
2014,05,23,01,32,2.60
2014,05,23,01,33,1.60
2014,05,23,01,34,1.90
2014,05,23,01,35,1.00
2014,05,23,01,36,0.00
2014,05,23,01,37,0.00
2014,05,23,01,38,1.00
2014,05,23,01,39,0.80
2014,05,23,01,40,0.00
2014,05,23,01,41,0.70
2014,05,23,01,42,0.50
2014,05,23,01,43,0.00
2014,05,23,01,44,1.40
2014,05,23,01,45,0.60
2014,05,23,01,46,0.20
2014,05,23,01,47,1.20
2014,05,23,01,48,0.60
2014,05,23,01,49,1.20
2014,05,23,01,50,2.60
2014,05,23,01,51,1.50
2014,05,23,01,52,0.40
2014,05,23,01,53,1.30
2014,05,23,01,54,0.60
2014,05,23,01,55,0.20
2014,05,23,01,56,0.00
2014,05,23,01,57,0.00
2014,05,23,01,58,0.60
2014,05,23,01,59,0.00
2014,05,23,02,00,0.00
2014,05,23,02,01,0.00
2014,05,23,02,02,0.00
2014,05,23,02,03,0.00
2014,05,23,02,04,0.00
2014,05,23,02,05,0.00
2014,05,23,02,06,0.00
2014,05,23,02,07,0.00
2014,05,23,02,08,0.00
2014,05,23,02,09,0.00
2014,05,23,02,10,0.00
2014,05,23,02,11,0.00
2014,05,23,02,12,0.00
2014,05,23,02,13,0.00
2014,05,23,02,14,0.00
2014,05,23,02,15,0.00
2014,05,23,02,16,0.10
2014,05,23,02,17,1.00
2014,05,23,02,18,1.60
2014,05,23,02,19,0.40
2014,05,23,02,20,0.90
2014,05,23,02,21,1.60
2014,05,23,02,22,1.60
2014,05,23,02,23,1.60
2014,05,23,02,24,1.60
2014,05,23,02,25,1.20
2014,05,23,02,26,1.40
2014,05,23,02,27,1.10
2014,05,23,02,28,1.40
2014,05,23,02,29,1.00
2014,05,23,02,30,1.60
2014,05,23,02,31,1.60
2014,05,23,02,32,1.60
2014,05,23,02,33,1.00
2014,05,23,02,34,0.80
2014,05,23,02,35,0.30
2014,05,23,02,36,0.00
2014,05,23,02,37,0.00
2014,05,23,02,38,0.00
2014,05,23,02,39,0.00
2014,05,23,02,40,0.00
2014,05,23,02,41,0.00
2014,05,23,02,42,0.00
2014,05,23,02,43,0.20
2014,05,23,02,44,0.70
2014,05,23,02,45,0.50
2014,05,23,02,46,0.80
2014,05,23,02,47,0.00
2014,05,23,02,48,0.20
2014,05,23,02,49,0.00
2014,05,23,02,50,0.00
2014,05,23,02,51,0.00
2014,05,23,02,52,0.00
2014,05,23,02,53,0.00
2014,05,23,02,54,0.00
2014,05,23,02,55,0.10
2014,05,23,02,56,0.80
2014,05,23,02,57,0.00
2014,05,23,02,58,0.70
2014,05,23,02,59,0.20
2014,05,23,03,00,0.00
2014,05,23,03,01,0.00
2014,05,23,03,02,0.00
2014,05,23,03,03,0.00
2014,05,23,03,04,0.10
2014,05,23,03,05,0.90
2014,05,23,03,06,2.70
2014,05,23,03,07,0.90
2014,05,23,03,08,0.50
2014,05,23,03,09,2.70
2014,05,23,03,10,3.30
2014,05,23,03,11,3.20
2014,05,23,03,12,3.20
2014,05,23,03,13,4.40
2014,05,23,03,14,4.70
2014,05,23,03,15,4.40
2014,05,23,03,16,3.70
2014,05,23,03,17,2.90
2014,05,23,03,18,2.90
2014,05,23,03,19,2.80
2014,05,23,03,20,2.20
2014,05,23,03,21,0.80
2014,05,23,03,22,2.10
2014,05,23,03,23,2.80
2014,05,23,03,24,3.30
2014,05,23,03,25,2.00
2014,05,23,03,26,2.10
2014,05,23,03,27,3.20
2014,05,23,03,28,2.70
2014,05,23,03,29,2.60
2014,05,23,03,30,1.90
2014,05,23,03,31,2.70
2014,05,23,03,32,2.80
2014,05,23,03,33,1.60
2014,05,23,03,34,1.60
2014,05,23,03,35,1.00
2014,05,23,03,36,0.20
2014,05,23,03,37,0.00
2014,05,23,03,38,0.00
2014,05,23,03,39,0.00
2014,05,23,03,40,0.00
2014,05,23,03,41,0.00
2014,05,23,03,42,0.00
2014,05,23,03,43,0.00
2014,05,23,03,44,0.00
2014,05,23,03,45,0.00
2014,05,23,03,46,0.00
2014,05,23,03,47,0.00
2014,05,23,03,48,0.00
2014,05,23,03,49,0.00
2014,05,23,03,50,0.00
2014,05,23,03,51,0.00
2014,05,23,03,52,0.00
2014,05,23,03,53,0.00
2014,05,23,03,54,0.00
2014,05,23,03,55,0.00
2014,05,23,03,56,0.00
2014,05,23,03,57,0.00
2014,05,23,03,58,0.00
2014,05,23,03,59,0.00
2014,05,23,04,00,0.00
2014,05,23,04,01,0.00
2014,05,23,04,02,0.00
2014,05,23,04,03,0.00
2014,05,23,04,04,0.00
2014,05,23,04,05,0.60
2014,05,23,04,06,0.10
2014,05,23,04,07,0.00
2014,05,23,04,08,0.50
2014,05,23,04,09,0.00
2014,05,23,04,10,0.40
2014,05,23,04,11,0.00
2014,05,23,04,12,0.00
2014,05,23,04,13,0.00
2014,05,23,04,14,0.00
2014,05,23,04,15,0.20
2014,05,23,04,16,0.00
2014,05,23,04,17,0.00
2014,05,23,04,18,0.00
2014,05,23,04,19,0.00
2014,05,23,04,20,0.00
2014,05,23,04,21,0.00
2014,05,23,04,22,0.00
2014,05,23,04,23,0.00
2014,05,23,04,24,0.00
2014,05,23,04,25,0.00
2014,05,23,04,26,0.80
2014,05,23,04,27,1.10
2014,05,23,04,28,1.90
2014,05,23,04,29,4.10
2014,05,23,04,30,5.00
2014,05,23,04,31,4.50
2014,05,23,04,32,3.10
2014,05,23,04,33,5.60
2014,05,23,04,34,6.00
2014,05,23,04,35,7.60
2014,05,23,04,36,5.40
2014,05,23,04,37,6.40
2014,05,23,04,38,5.90
2014,05,23,04,39,7.30
2014,05,23,04,40,5.10
2014,05,23,04,41,5.90
2014,05,23,04,42,7.70
2014,05,23,04,43,4.70
2014,05,23,04,44,6.20
2014,05,23,04,45,7.60
2014,05,23,04,46,5.00
2014,05,23,04,47,6.10
2014,05,23,04,48,7.30
2014,05,23,04,49,8.00
2014,05,23,04,50,7.30
2014,05,23,04,51,6.40
2014,05,23,04,52,8.10
2014,05,23,04,53,8.00
2014,05,23,04,54,8.00
2014,05,23,04,55,6.10
2014,05,23,04,56,7.10
2014,05,23,04,57,6.80
2014,05,23,04,58,7.40
2014,05,23,04,59,7.90
2014,05,23,05,00,8.70
2014,05,23,05,01,8.90
2014,05,23,05,02,8.70
2014,05,23,05,03,9.40
2014,05,23,05,04,8.70
2014,05,23,05,05,11.70
2014,05,23,05,06,11.50
2014,05,23,05,07,10.30
2014,05,23,05,08,12.20
2014,05,23,05,09,11.90
2014,05,23,05,10,12.30
2014,05,23,05,11,14.50
2014,05,23,05,12,14.10
2014,05,23,05,13,15.10
2014,05,23,05,14,15.90
2014,05,23,05,15,15.90
2014,05,23,05,16,16.10
2014,05,23,05,17,15.40
2014,05,23,05,18,14.90
2014,05,23,05,19,15.60
2014,05,23,05,20,16.90
2014,05,23,05,21,17.90
2014,05,23,05,22,17.40
2014,05,23,05,23,17.50
2014,05,23,05,24,17.50
2014,05,23,05,25,16.20
2014,05,23,05,26,13.30
2014,05,23,05,27,14.60
2014,05,23,05,28,16.80
2014,05,23,05,29,16.50
2014,05,23,05,30,13.30
2014,05,23,05,31,15.90
2014,05,23,05,32,14.20
2014,05,23,05,33,15.10
2014,05,23,05,34,15.90
2014,05,23,05,35,17.00
2014,05,23,05,36,20.60
2014,05,23,05,37,17.30
2014,05,23,05,38,17.40
2014,05,23,05,39,17.00
2014,05,23,05,40,14.90
2014,05,23,05,41,17.60
2014,05,23,05,42,14.00
2014,05,23,05,43,13.30
2014,05,23,05,44,13.60
2014,05,23,05,45,18.40
2014,05,23,05,46,16.50
2014,05,23,05,47,12.30
2014,05,23,05,48,15.60
2014,05,23,05,49,11.40
2014,05,23,05,50,16.20
2014,05,23,05,51,14.20
2014,05,23,05,52,16.10
2014,05,23,05,53,16.20
2014,05,23,05,54,20.00
2014,05,23,05,55,16.10
2014,05,23,05,56,8.40
2014,05,23,05,57,13.70
2014,05,23,05,58,11.70
2014,05,23,05,59,8.80
2014,05,23,06,00,11.00
2014,05,23,06,01,16.40
2014,05,23,06,02,15.30
2014,05,23,06,03,15.30
2014,05,23,06,04,15.20
2014,05,23,06,05,22.00
2014,05,23,06,06,24.70
2014,05,23,06,07,25.10
2014,05,23,06,08,18.30
2014,05,23,06,09,27.50
2014,05,23,06,10,24.60
2014,05,23,06,11,20.00
2014,05,23,06,12,22.40
2014,05,23,06,13,17.00
2014,05,23,06,14,21.10
2014,05,23,06,15,17.00
2014,05,23,06,16,12.30
2014,05,23,06,17,7.90
2014,05,23,06,18,10.80
2014,05,23,06,19,17.90
2014,05,23,06,20,16.80
2014,05,23,06,21,13.60
2014,05,23,06,22,14.60
2014,05,23,06,23,12.20
2014,05,23,06,24,12.00
2014,05,23,06,25,10.30
2014,05,23,06,26,14.30
2014,05,23,06,27,9.80
2014,05,23,06,28,8.50
2014,05,23,06,29,12.20
2014,05,23,06,30,14.40
2014,05,23,06,31,16.20
2014,05,23,06,32,11.60
2014,05,23,06,33,14.30
2014,05,23,06,34,15.50
2014,05,23,06,35,19.20
2014,05,23,06,36,10.30
2014,05,23,06,37,8.40
2014,05,23,06,38,12.60
2014,05,23,06,39,10.40
2014,05,23,06,40,11.70
2014,05,23,06,41,9.10
2014,05,23,06,42,6.30
2014,05,23,06,43,4.70
2014,05,23,06,44,7.40
2014,05,23,06,45,9.40
2014,05,23,06,46,4.00
2014,05,23,06,47,5.10
2014,05,23,06,48,6.60
2014,05,23,06,49,11.50
2014,05,23,06,50,8.30
2014,05,23,06,51,7.90
2014,05,23,06,52,4.30
2014,05,23,06,53,10.80
2014,05,23,06,54,9.90
2014,05,23,06,55,4.70
2014,05,23,06,56,5.80
2014,05,23,06,57,10.10
2014,05,23,06,58,13.10
2014,05,23,06,59,14.60
2014,05,23,07,00,7.70
2014,05,23,07,01,10.60
2014,05,23,07,02,19.00
2014,05,23,07,03,8.90
2014,05,23,07,04,6.00
2014,05,23,07,05,7.70
2014,05,23,07,06,6.90
2014,05,23,07,07,20.00
2014,05,23,07,08,16.50
2014,05,23,07,09,15.30
2014,05,23,07,10,14.30
2014,05,23,07,11,17.60
2014,05,23,07,12,13.70
2014,05,23,07,13,9.30
2014,05,23,07,14,15.70
2014,05,23,07,15,13.50
2014,05,23,07,16,18.50
2014,05,23,07,17,15.60
2014,05,23,07,18,16.20
2014,05,23,07,19,12.90
2014,05,23,07,20,15.90
2014,05,23,07,21,12.50
2014,05,23,07,22,6.90
2014,05,23,07,23,14.80
2014,05,23,07,24,13.30
2014,05,23,07,25,16.20
2014,05,23,07,26,12.60
2014,05,23,07,27,12.90
2014,05,23,07,28,11.70
2014,05,23,07,29,10.80
2014,05,23,07,30,8.90
2014,05,23,07,31,9.10
2014,05,23,07,32,14.00
2014,05,23,07,33,14.30
2014,05,23,07,34,13.90
2014,05,23,07,35,12.90
2014,05,23,07,36,12.50
2014,05,23,07,37,12.50
2014,05,23,07,38,16.80
2014,05,23,07,39,18.40
2014,05,23,07,40,17.20
2014,05,23,07,41,13.50
2014,05,23,07,42,20.00
2014,05,23,07,43,15.70
2014,05,23,07,44,13.60
2014,05,23,07,45,19.20
2014,05,23,07,46,12.90
2014,05,23,07,47,12.00
2014,05,23,07,48,12.90
2014,05,23,07,49,14.40
2014,05,23,07,50,13.00
2014,05,23,07,51,15.50
2014,05,23,07,52,11.60
2014,05,23,07,53,11.80
2014,05,23,07,54,11.60
2014,05,23,07,55,12.20
2014,05,23,07,56,11.80
2014,05,23,07,57,12.80
2014,05,23,07,58,10.40
2014,05,23,07,59,6.70
2014,05,23,08,00,6.30
2014,05,23,08,01,8.70
2014,05,23,08,02,10.00
2014,05,23,08,03,7.80
2014,05,23,08,04,8.60
2014,05,23,08,05,4.70
2014,05,23,08,06,1.50
2014,05,23,08,07,4.50
2014,05,23,08,08,9.40
2014,05,23,08,09,6.30
2014,05,23,08,10,6.10
2014,05,23,08,11,5.40
2014,05,23,08,12,6.10
2014,05,23,08,13,4.10
2014,05,23,08,14,0.80
2014,05,23,08,15,2.50
2014,05,23,08,16,3.10
2014,05,23,08,17,4.20
2014,05,23,08,18,5.50
2014,05,23,08,19,2.40
2014,05,23,08,20,1.10
2014,05,23,08,21,2.70
2014,05,23,08,22,3.90
2014,05,23,08,23,4.10
2014,05,23,08,24,6.40
2014,05,23,08,25,4.70
2014,05,23,08,26,5.60
2014,05,23,08,27,4.50
2014,05,23,08,28,4.70
2014,05,23,08,29,6.80
2014,05,23,08,30,7.00
2014,05,23,08,31,9.60
2014,05,23,08,32,3.80
2014,05,23,08,33,7.00
2014,05,23,08,34,6.80
2014,05,23,08,35,4.40
2014,05,23,08,36,4.80
2014,05,23,08,37,2.30
2014,05,23,08,38,0.80
2014,05,23,08,39,2.40
2014,05,23,08,40,2.60
2014,05,23,08,41,3.30
2014,05,23,08,42,1.20
2014,05,23,08,43,2.40
2014,05,23,08,44,2.70
2014,05,23,08,45,3.40
2014,05,23,08,46,3.40
2014,05,23,08,47,2.00
2014,05,23,08,48,2.70
2014,05,23,08,49,3.70
2014,05,23,08,50,2.70
2014,05,23,08,51,2.10
2014,05,23,08,52,2.00
2014,05,23,08,53,2.00
2014,05,23,08,54,2.30
2014,05,23,08,55,1.20
2014,05,23,08,56,0.80
2014,05,23,08,57,0.80
2014,05,23,08,58,1.60
2014,05,23,08,59,0.10
2014,05,23,09,00,1.40
2014,05,23,09,01,2.70
2014,05,23,09,02,0.60
2014,05,23,09,03,2.80
2014,05,23,09,04,3.00
2014,05,23,09,05,5.10
2014,05,23,09,06,3.70
2014,05,23,09,07,3.80
2014,05,23,09,08,4.40
2014,05,23,09,09,4.90
2014,05,23,09,10,7.20
2014,05,23,09,11,6.80
2014,05,23,09,12,6.50
2014,05,23,09,13,5.60
2014,05,23,09,14,7.10
2014,05,23,09,15,6.00
2014,05,23,09,16,3.20
2014,05,23,09,17,6.60
2014,05,23,09,18,12.60
2014,05,23,09,19,13.80
2014,05,23,09,20,12.60
2014,05,23,09,21,8.40
2014,05,23,09,22,9.60
2014,05,23,09,23,10.50
2014,05,23,09,24,11.80
2014,05,23,09,25,5.80
2014,05,23,09,26,8.40
2014,05,23,09,27,7.00
2014,05,23,09,28,7.20
2014,05,23,09,29,6.40
2014,05,23,09,30,7.40
2014,05,23,09,31,7.10
2014,05,23,09,32,4.00
2014,05,23,09,33,2.40
2014,05,23,09,34,4.30
2014,05,23,09,35,4.40
2014,05,23,09,36,7.50
2014,05,23,09,37,5.80
2014,05,23,09,38,9.00
2014,05,23,09,39,8.70
2014,05,23,09,40,6.60
2014,05,23,09,41,7.00
2014,05,23,09,42,8.30
2014,05,23,09,43,2.90
2014,05,23,09,44,3.80
2014,05,23,09,45,6.10
2014,05,23,09,46,8.90
2014,05,23,09,47,7.70
2014,05,23,09,48,7.90
2014,05,23,09,49,8.10
2014,05,23,09,50,7.50
2014,05,23,09,51,9.70
2014,05,23,09,52,8.30
2014,05,23,09,53,6.40
2014,05,23,09,54,7.60
2014,05,23,09,55,8.80
2014,05,23,09,56,8.20
2014,05,23,09,57,8.80
2014,05,23,09,58,9.30
2014,05,23,09,59,11.20
2014,05,23,10,00,6.40
2014,05,23,10,01,6.10
2014,05,23,10,02,6.90
2014,05,23,10,03,5.00
2014,05,23,10,04,4.70
2014,05,23,10,05,4.20
2014,05,23,10,06,9.30
2014,05,23,10,07,9.00
2014,05,23,10,08,9.60
2014,05,23,10,09,5.30
2014,05,23,10,10,6.10
2014,05,23,10,11,10.00
2014,05,23,10,12,9.50
2014,05,23,10,13,9.40
2014,05,23,10,14,14.60
2014,05,23,10,15,12.00
2014,05,23,10,16,9.90
2014,05,23,10,17,11.10
2014,05,23,10,18,6.70
2014,05,23,10,19,12.20
2014,05,23,10,20,7.50
2014,05,23,10,21,9.70
2014,05,23,10,22,9.70
2014,05,23,10,23,9.80
2014,05,23,10,24,8.90
2014,05,23,10,25,7.90
2014,05,23,10,26,5.00
2014,05,23,10,27,6.20
2014,05,23,10,28,5.40
2014,05,23,10,29,9.40
2014,05,23,10,30,14.30
2014,05,23,10,31,15.30
2014,05,23,10,32,15.40
2014,05,23,10,33,16.10
2014,05,23,10,34,11.70
2014,05,23,10,35,10.50
2014,05,23,10,36,12.90
2014,05,23,10,37,9.50
2014,05,23,10,38,6.10
2014,05,23,10,39,5.00
2014,05,23,10,40,5.70
2014,05,23,10,41,8.10
2014,05,23,10,42,5.00
2014,05,23,10,43,4.80
2014,05,23,10,44,8.00
2014,05,23,10,45,7.90
2014,05,23,10,46,7.10
2014,05,23,10,47,9.40
2014,05,23,10,48,7.60
2014,05,23,10,49,6.90
2014,05,23,10,50,5.10
2014,05,23,10,51,9.70
2014,05,23,10,52,11.00
2014,05,23,10,53,9.40
2014,05,23,10,54,8.80
2014,05,23,10,55,9.20
2014,05,23,10,56,10.50
2014,05,23,10,57,10.00
2014,05,23,10,58,7.50
2014,05,23,10,59,6.80
2014,05,23,11,00,6.70
2014,05,23,11,01,6.80
2014,05,23,11,02,6.90
2014,05,23,11,03,7.90
2014,05,23,11,04,4.20
2014,05,23,11,05,5.80
2014,05,23,11,06,6.90
2014,05,23,11,07,6.50
2014,05,23,11,08,6.80
2014,05,23,11,09,8.10
2014,05,23,11,10,7.20
2014,05,23,11,11,7.00
2014,05,23,11,12,5.70
2014,05,23,11,13,3.50
2014,05,23,11,14,5.90
2014,05,23,11,15,2.10
2014,05,23,11,16,5.10
2014,05,23,11,17,3.40
2014,05,23,11,18,4.60
2014,05,23,11,19,3.90
2014,05,23,11,20,1.50
2014,05,23,11,21,3.30
2014,05,23,11,22,3.30
2014,05,23,11,23,4.50
2014,05,23,11,24,3.90
2014,05,23,11,25,3.20
2014,05,23,11,26,2.10
2014,05,23,11,27,4.20
2014,05,23,11,28,2.70
2014,05,23,11,29,3.90
2014,05,23,11,30,1.70
2014,05,23,11,31,3.20
2014,05,23,11,32,4.70
2014,05,23,11,33,4.90
2014,05,23,11,34,6.60
2014,05,23,11,35,5.10
2014,05,23,11,36,6.20
2014,05,23,11,37,8.30
2014,05,23,11,38,8.90
2014,05,23,11,39,9.50
2014,05,23,11,40,8.90
2014,05,23,11,41,7.30
2014,05,23,11,42,5.80
2014,05,23,11,43,7.30
2014,05,23,11,44,7.50
2014,05,23,11,45,7.00
2014,05,23,11,46,7.30
2014,05,23,11,47,7.20
2014,05,23,11,48,8.80
2014,05,23,11,49,3.80
2014,05,23,11,50,5.80
2014,05,23,11,51,7.00
2014,05,23,11,52,3.00
2014,05,23,11,53,7.30
2014,05,23,11,54,3.10
2014,05,23,11,55,6.40
2014,05,23,11,56,4.30
2014,05,23,11,57,9.30
2014,05,23,11,58,4.20
2014,05,23,11,59,4.10
2014,05,23,12,00,3.60
2014,05,23,12,01,5.80
2014,05,23,12,02,5.00
2014,05,23,12,03,7.00
2014,05,23,12,04,6.80
2014,05,23,12,05,5.40
2014,05,23,12,06,8.20
2014,05,23,12,07,8.60
2014,05,23,12,08,8.30
2014,05,23,12,09,9.70
2014,05,23,12,10,6.80
2014,05,23,12,11,6.60
2014,05,23,12,12,7.30
2014,05,23,12,13,8.10
2014,05,23,12,14,7.90
2014,05,23,12,15,6.80
2014,05,23,12,16,4.50
2014,05,23,12,17,5.10
2014,05,23,12,18,8.50
2014,05,23,12,19,6.80
2014,05,23,12,20,6.10
2014,05,23,12,21,9.70
2014,05,23,12,22,9.70
2014,05,23,12,23,11.50
2014,05,23,12,24,9.90
2014,05,23,12,25,7.80
2014,05,23,12,26,8.70
2014,05,23,12,27,7.10
2014,05,23,12,28,8.90
2014,05,23,12,29,9.10
2014,05,23,12,30,8.90
2014,05,23,12,31,7.50
2014,05,23,12,32,10.00
2014,05,23,12,33,6.80
2014,05,23,12,34,6.40
2014,05,23,12,35,3.60
2014,05,23,12,36,5.40
2014,05,23,12,37,8.90
2014,05,23,12,38,9.40
2014,05,23,12,39,10.40
2014,05,23,12,40,12.40
2014,05,23,12,41,12.50
2014,05,23,12,42,14.00
2014,05,23,12,43,16.70
2014,05,23,12,44,13.80
2014,05,23,12,45,12.50
2014,05,23,12,46,8.70
2014,05,23,12,47,10.80
2014,05,23,12,48,11.40
2014,05,23,12,49,9.50
2014,05,23,12,50,11.30
2014,05,23,12,51,12.70
2014,05,23,12,52,12.70
2014,05,23,12,53,14.60
2014,05,23,12,54,12.70
2014,05,23,12,55,11.70
2014,05,23,12,56,9.70
2014,05,23,12,57,10.10
2014,05,23,12,58,12.20
2014,05,23,12,59,13.90
2014,05,23,13,00,11.70
2014,05,23,13,01,6.10
2014,05,23,13,02,15.60
2014,05,23,13,03,12.30
2014,05,23,13,04,14.70
2014,05,23,13,05,17.50
2014,05,23,13,06,13.20
2014,05,23,13,07,15.20
2014,05,23,13,08,17.00
2014,05,23,13,09,14.80
2014,05,23,13,10,13.40
2014,05,23,13,11,12.50
2014,05,23,13,12,12.40
2014,05,23,13,13,15.80
2014,05,23,13,14,17.50
2014,05,23,13,15,10.60
2014,05,23,13,16,14.60
2014,05,23,13,17,13.70
2014,05,23,13,18,8.30
2014,05,23,13,19,14.10
2014,05,23,13,20,15.40
2014,05,23,13,21,14.50
2014,05,23,13,22,10.70
2014,05,23,13,23,14.80
2014,05,23,13,24,16.70
2014,05,23,13,25,16.60
2014,05,23,13,26,12.10
2014,05,23,13,27,15.80
2014,05,23,13,28,17.90
2014,05,23,13,29,17.80
2014,05,23,13,30,16.80
2014,05,23,13,31,11.30
2014,05,23,13,32,13.40
2014,05,23,13,33,10.20
2014,05,23,13,34,6.40
2014,05,23,13,35,6.40
2014,05,23,13,36,7.30
2014,05,23,13,37,13.30
2014,05,23,13,38,13.80
2014,05,23,13,39,11.00
2014,05,23,13,40,10.80
2014,05,23,13,41,15.00
2014,05,23,13,42,15.90
2014,05,23,13,43,12.80
2014,05,23,13,44,14.60
2014,05,23,13,45,17.20
2014,05,23,13,46,10.50
2014,05,23,13,47,13.10
2014,05,23,13,48,15.60
2014,05,23,13,49,15.70
2014,05,23,13,50,12.10
2014,05,23,13,51,8.40
2014,05,23,13,52,14.40
2014,05,23,13,53,17.50
2014,05,23,13,54,20.00
2014,05,23,13,55,19.70
2014,05,23,13,56,18.10
2014,05,23,13,57,14.50
2014,05,23,13,58,18.90
2014,05,23,13,59,20.00
2014,05,23,14,00,20.60
2014,05,23,14,01,11.30
2014,05,23,14,02,9.30
2014,05,23,14,03,11.80
2014,05,23,14,04,18.60
2014,05,23,14,05,16.60
2014,05,23,14,06,18.70
2014,05,23,14,07,18.90
2014,05,23,14,08,18.30
2014,05,23,14,09,16.30
2014,05,23,14,10,15.50
2014,05,23,14,11,21.40
2014,05,23,14,12,20.30
2014,05,23,14,13,22.00
2014,05,23,14,14,18.20
2014,05,23,14,15,9.70
2014,05,23,14,16,9.10
2014,05,23,14,17,8.70
2014,05,23,14,18,15.40
2014,05,23,14,19,19.20
2014,05,23,14,20,18.60
2014,05,23,14,21,16.00
2014,05,23,14,22,11.30
2014,05,23,14,23,6.20
2014,05,23,14,24,19.50
2014,05,23,14,25,20.40
2014,05,23,14,26,25.70
2014,05,23,14,27,27.20
2014,05,23,14,28,25.30
2014,05,23,14,29,24.30
2014,05,23,14,30,24.20
2014,05,23,14,31,23.90
2014,05,23,14,32,13.50
2014,05,23,14,33,18.80
2014,05,23,14,34,21.90
2014,05,23,14,35,19.30
2014,05,23,14,36,9.20
2014,05,23,14,37,15.40
2014,05,23,14,38,10.50
2014,05,23,14,39,12.20
2014,05,23,14,40,7.60
2014,05,23,14,41,14.80
2014,05,23,14,42,18.50
2014,05,23,14,43,19.20
2014,05,23,14,44,10.50
2014,05,23,14,45,16.00
2014,05,23,14,46,20.70
2014,05,23,14,47,10.10
2014,05,23,14,48,6.40
2014,05,23,14,49,8.60
2014,05,23,14,50,17.10
2014,05,23,14,51,22.70
2014,05,23,14,52,23.00
2014,05,23,14,53,19.90
2014,05,23,14,54,18.70
2014,05,23,14,55,19.10
2014,05,23,14,56,18.20
2014,05,23,14,57,21.10
2014,05,23,14,58,13.90
2014,05,23,14,59,21.30
2014,05,23,15,00,18.80
2014,05,23,15,01,19.50
2014,05,23,15,02,15.10
2014,05,23,15,03,13.80
2014,05,23,15,04,15.30
2014,05,23,15,05,21.10
2014,05,23,15,06,20.80
2014,05,23,15,07,21.20
2014,05,23,15,08,15.30
2014,05,23,15,09,9.20
2014,05,23,15,10,10.40
2014,05,23,15,11,11.00
2014,05,23,15,12,8.50
2014,05,23,15,13,16.50
2014,05,23,15,14,16.00
2014,05,23,15,15,17.50
2014,05,23,15,16,15.80
2014,05,23,15,17,10.40
2014,05,23,15,18,5.80
2014,05,23,15,19,8.30
2014,05,23,15,20,11.80
2014,05,23,15,21,11.90
2014,05,23,15,22,6.40
2014,05,23,15,23,17.30
2014,05,23,15,24,18.90
2014,05,23,15,25,14.70
2014,05,23,15,26,7.60
2014,05,23,15,27,5.60
2014,05,23,15,28,7.60
2014,05,23,15,29,10.50
2014,05,23,15,30,3.90
2014,05,23,15,31,4.90
2014,05,23,15,32,4.00
2014,05,23,15,33,3.40
2014,05,23,15,34,4.30
2014,05,23,15,35,5.30
2014,05,23,15,36,4.00
2014,05,23,15,37,1.30
2014,05,23,15,38,1.10
2014,05,23,15,39,11.60
2014,05,23,15,40,15.90
2014,05,23,15,41,14.20
2014,05,23,15,42,20.80
2014,05,23,15,43,25.30
2014,05,23,15,44,18.80
2014,05,23,15,45,22.80
2014,05,23,15,46,30.70
2014,05,23,15,47,26.10
2014,05,23,15,48,24.90
2014,05,23,15,49,30.40
2014,05,23,15,50,21.60
2014,05,23,15,51,26.70
2014,05,23,15,52,24.30
2014,05,23,15,53,25.70
2014,05,23,15,54,27.60
2014,05,23,15,55,23.50
2014,05,23,15,56,24.00
2014,05,23,15,57,29.20
2014,05,23,15,58,28.10
2014,05,23,15,59,22.00
2014,05,23,16,00,21.50
2014,05,23,16,01,21.30
2014,05,23,16,02,15.30
2014,05,23,16,03,26.30
2014,05,23,16,04,21.20
2014,05,23,16,05,26.60
2014,05,23,16,06,21.40
2014,05,23,16,07,23.90
2014,05,23,16,08,22.90
2014,05,23,16,09,22.60
2014,05,23,16,10,27.70
2014,05,23,16,11,24.90
2014,05,23,16,12,24.90
2014,05,23,16,13,25.50
2014,05,23,16,14,24.90
2014,05,23,16,15,23.60
2014,05,23,16,16,20.40
2014,05,23,16,17,23.60
2014,05,23,16,18,30.00
2014,05,23,16,19,25.30
2014,05,23,16,20,25.20
2014,05,23,16,21,21.40
2014,05,23,16,22,31.50
2014,05,23,16,23,30.50
2014,05,23,16,24,26.90
2014,05,23,16,25,28.90
2014,05,23,16,26,28.70
2014,05,23,16,27,24.00
2014,05,23,16,28,26.30
2014,05,23,16,29,30.70
2014,05,23,16,30,30.90
2014,05,23,16,31,23.20
2014,05,23,16,32,21.30
2014,05,23,16,33,34.40
2014,05,23,16,34,33.50
2014,05,23,16,35,27.80
2014,05,23,16,36,26.90
2014,05,23,16,37,25.60
2014,05,23,16,38,28.50
2014,05,23,16,39,26.80
2014,05,23,16,40,31.70
2014,05,23,16,41,25.20
2014,05,23,16,42,29.70
2014,05,23,16,43,33.30
2014,05,23,16,44,31.60
2014,05,23,16,45,35.40
2014,05,23,16,46,36.90
2014,05,23,16,47,39.40
2014,05,23,16,48,39.60
2014,05,23,16,49,35.30
2014,05,23,16,50,35.50
2014,05,23,16,51,36.70
2014,05,23,16,52,36.60
2014,05,23,16,53,38.30
2014,05,23,16,54,37.60
2014,05,23,16,55,40.10
2014,05,23,16,56,39.90
2014,05,23,16,57,40.00
2014,05,23,16,58,44.90
2014,05,23,16,59,42.30
2014,05,23,17,00,39.70
2014,05,23,17,01,31.60
2014,05,23,17,02,36.00
2014,05,23,17,03,30.20
2014,05,23,17,04,37.60
2014,05,23,17,05,33.30
2014,05,23,17,06,30.50
2014,05,23,17,07,29.20
2014,05,23,17,08,40.00
2014,05,23,17,09,39.40
2014,05,23,17,10,40.80
2014,05,23,17,11,43.30
2014,05,23,17,12,37.30
2014,05,23,17,13,30.70
2014,05,23,17,14,39.70
2014,05,23,17,15,39.00
2014,05,23,17,16,41.80
2014,05,23,17,17,35.20
2014,05,23,17,18,33.00
2014,05,23,17,19,37.60
2014,05,23,17,20,39.10
2014,05,23,17,21,38.20
2014,05,23,17,22,35.20
2014,05,23,17,23,39.60
2014,05,23,17,24,41.40
2014,05,23,17,25,40.60
2014,05,23,17,26,35.00
2014,05,23,17,27,28.50
2014,05,23,17,28,35.30
2014,05,23,17,29,35.80
2014,05,23,17,30,25.40
2014,05,23,17,31,31.80
2014,05,23,17,32,32.10
2014,05,23,17,33,27.70
2014,05,23,17,34,22.70
2014,05,23,17,35,31.90
2014,05,23,17,36,32.80
2014,05,23,17,37,28.80
2014,05,23,17,38,35.70
2014,05,23,17,39,31.70
2014,05,23,17,40,27.80
2014,05,23,17,41,26.20
2014,05,23,17,42,31.10
2014,05,23,17,43,36.20
2014,05,23,17,44,32.40
2014,05,23,17,45,32.20
2014,05,23,17,46,34.20